Location: Franzen
(48.6167°N, 15.3833°E)
Time: 12:59:23
(UTC+00:00)

Cosmos 921 Rocket - Pass Details

Date: 22 April 2021
Orbit: 572 x 631 km, 75.8° (Epoch: 16 May)

Event Time Altitude Azimuth Distance (km) Brightness Sun altitude
Rises 21:05:53 0° 340° (NNW) 2,903 7.9 -24.1°
Reaches altitude 10° 21:08:10 10° 342° (NNW) 1,984 6.7 -24.3°
Enters shadow 21:12:20 76° 18° (NNE) 630 3.0 -24.6°
